User: anonymous   Login
Location: Unspecified
(0.0000°N, 0.0000°E)
Time: 11:03:13
(UTC+00:00)
Language:

AO-7 - Orbit

View from above orbital plane
View from above orbital plane
View from above satellite
View from above satellite

Ground track
Ground track

The orbit data is extracted from the following two-line orbital elements,

1 07530U 74089B   17269.18964337 -.00000027  00000-0  10630-3 0  9992
2 07530 101.6434 235.9288 0012289 124.8894 305.9444 12.53628865961518
Epoch (UTC): 26 September 2017 04:33:05
Eccentricity: 0.0012289
inclination: 101.6434°
perigee height: 1440 km
apogee height: 1459 km
right ascension of ascending node: 235.9288°
argument of perigee: 124.8894°
revolutions per day: 12.53628865
mean anomaly at epoch: 305.9444°
orbit number at epoch: 96151

The dashed part of the orbit path shows where the satellite is in the earth's shadow,  

DLR